Temperature
23 20 20 20 20 20 20 20 20 21 22 21 20 20 19 20 20 20 20 20 19 19 18 18 17 17 16 16 15 15 15 14 14 14 14 14 14 13 13 13 13 13 13 13
20 20 21 21 21 21 21 20 21 21 22 21 20 20 20 20 20 20 20 20 19 19 18 17 17 17 16 16 15 15 14 14 14 14 13 13 13 13 13 13 13 13 13 13
20 21 22 22 21 21 21 20 21 21 22 22 21 19 19 20 20 20 20 20 20 19 18 17 17 17 16 16 15 15 14 14 14 13 13 13 13 13 13 13 13 13 13 13
20 21 22 22 22 21 21 22 23 22 21 19 21 18 19 19 19 19 19 19 19 19 18 18 17 17 16 15 15 14 14 14 14 13 13 13 13 13 13 13 13 13 13 13
20 21 22 22 22 22 21 23 23 22 21 20 19 18 18 19 18 18 18 19 19 19 18 18 17 17 16 15 15 14 14 14 13 13 13 13 13 13 13 13 13 13 13 13
20 21 22 22 23 23 22 21 20 18 18 19 20 18 18 17 18 18 18 19 19 19 18 18 17 17 16 15 15 14 14 14 13 13 13 13 13 13 13 13 13 13 13 12
21 21 23 23 23 23 21 19 18 19 17 18 19 19 18 19 19 19 18 19 19 19 18 18 17 17 16 15 15 14 14 14 13 13 13 13 13 13 12 12 12 12 12 12
20 20 22 23 23 22 21 19 18 19 19 18 19 19 18 20 20 21 20 20 19 19 18 18 17 17 16 16 15 15 14 14 13 13 13 13 13 12 12 12 12 12 12 12
19 20 23 24 24 23 22 20 18 17 19 18 18 19 20 20 19 19 19 19 19 19 18 18 17 17 16 16 15 15 14 14 14 13 13 13 13 13 12 12 12 12 12 12
20 21 22 23 24 23 22 20 17 18 18 18 19 19 17 19 18 18 18 19 19 19 18 18 17 17 16 16 15 15 14 14 14 13 13 13 13 13 13 12 12 12 12 12
21 20 21 22 23 22 23 22 18 16 16 17 18 18 19 18 18 18 18 20 20 19 19 18 18 17 17 16 15 15 15 14 14 14 13 13 13 13 13 13 12 12 12 12
20 18 19 21 21 22 22 21 18 18 18 16 16 17 19 19 19 19 20 20 20 19 19 18 18 17 17 16 16 15 15 14 14 14 14 13 13 13 13 13 13 12 12 12
20 18 19 19 20 22 23 22 19 16 16 16 16 19 19 19 19 20 20 20 20 20 19 18 18 17 17 16 16 15 15 15 14 14 14 13 13 13 13 13 13 13 12 12
20 18 19 20 20 20 22 22 21 18 17 17 18 19 20 19 19 19 20 21 20 20 19 19 18 18 17 17 16 16 15 15 15 14 14 14 13 13 13 13 13 13 13 13
20 20 21 20 21 21 21 21 21 20 18 18 19 19 20 19 18 20 21 20 20 19 19 19 18 18 17 17 16 16 16 15 15 14 14 14 13 13 13 13 13 13 13 13
19 20 21 21 22 22 22 21 20 20 20 19 20 20 20 20 21 20 20 20 20 20 19 19 19 18 18 17 17 16 16 15 15 15 14 14 14 13 13 13 13 13 13 13
19 19 20 19 20 21 21 21 20 20 20 20 20 19 20 19 19 20 21 21 20 20 20 19 19 18 18 17 17 16 16 16 15 15 15 14 14 14 14 13 13 13 13 13
18 18 16 18 20 21 20 20 21 21 21 20 20 20 19 20 22 22 22 21 21 20 20 19 19 19 18 17 17 17 16 16 15 15 15 14 14 14 14 14 13 13 13 13
18 18 17 17 18 19 20 22 21 21 21 20 20 20 21 21 20 20 21 22 21 21 20 20 19 19 18 18 17 17 16 16 16 15 15 15 14 14 14 14 14 13 13 13
17 16 16 16 19 19 20 21 23 22 21 21 20 20 20 20 17 18 21 21 21 20 20 19 19 18 18 17 17 17 16 16 16 15 15 15 15 14 14 14 14 14 14 13
18 17 16 16 17 18 19 22 22 20 20 22 22 22 21 20 20 22 21 21 21 20 20 19 19 18 18 17 17 17 16 16 16 15 15 15 15 15 14 14 14 14 14 13
17 16 16 15 17 18 20 22 20 20 22 23 23 23 23 23 22 22 21 21 20 20 19 19 18 18 17 17 17 17 16 16 16 16 15 15 15 15 14 14 14 14 14 14
16 17 16 16 18 20 22 23 24 24 23 23 23 23 23 22 22 21 21 20 20 20 19 18 18 18 17 17 17 17 16 16 16 16 15 15 15 15 15 14 14 14 14 14
17 17 16 17 17 20 22 23 24 24 24 24 23 23 23 22 22 21 20 20 20 19 19 18 18 17 17 17 16 16 16 16 16 15 15 15 15 15 15 14 14 14 14 14
18 18 17 17 18 20 21 22 23 23 23 23 23 22 22 22 21 21 20 20 19 19 18 18 17 17 17 16 16 16 16 16 15 15 15 15 15 15 14 14 14 14 14 14
17 18 17 17 19 18 21 23 23 23 22 22 22 22 21 21 21 20 20 19 19 18 18 18 17 17 16 16 16 16 15 15 15 15 15 15 14 14 14 14 14 14 14 14
Wind_Speed
3 4 4 7 7 7 6 4 4 6 6 7 9 9 8 10 8 8 7 7 8 8 6 6 6 6 5 4 4 3 2 2 2 2 2 3 4 4 4 4 4 4 4 3
3 3 6 7 6 5 4 2 3 4 4 6 6 7 6 9 10 9 10 9 9 8 6 6 5 5 5 4 3 3 2 2 2 1 2 2 3 3 3 4 4 5 4 4
6 4 6 7 5 4 3 5 5 5 2 1 1 4 1 3 4 5 7 8 9 12 10 8 6 5 5 4 3 3 2 1 2 2 2 3 3 3 4 4 4 4 5 4
2 4 3 5 5 5 4 7 7 5 2 3 3 1 4 3 4 6 7 7 9 9 9 8 7 6 5 4 3 3 1 1 2 2 3 2 2 2 3 4 4 6 5 4
3 4 5 5 6 7 8 6 4 2 2 2 0 4 5 3 5 6 7 8 8 9 10 9 8 7 6 5 4 2 1 1 2 3 3 2 2 2 3 4 5 5 5 4
3 3 5 6 5 5 3 4 6 5 4 2 4 6 5 5 8 7 6 8 8 9 9 8 7 6 4 4 3 2 1 1 2 3 3 2 2 3 4 5 5 5 4 4
1 2 3 4 3 1 5 6 5 5 4 5 2 4 6 6 7 9 10 10 9 9 9 8 8 7 5 5 3 2 1 1 2 2 2 2 2 2 3 4 4 4 3 3
3 3 4 4 5 5 4 8 6 4 4 5 3 2 4 2 4 7 8 9 8 9 8 9 9 8 6 6 5 3 2 2 2 2 3 2 2 2 2 3 3 3 3 3
5 3 2 1 2 6 5 3 7 6 2 1 2 2 4 1 2 5 6 7 8 9 9 9 8 8 7 6 6 5 3 2 2 2 2 2 3 3 3 4 3 3 3 3
5 2 2 1 4 3 6 7 6 4 2 1 2 3 5 8 8 7 7 8 8 8 8 8 8 7 7 6 5 4 4 3 2 1 1 1 2 3 3 3 4 4 4 4
3 4 2 2 3 4 2 3 6 5 5 5 2 6 7 11 10 10 10 9 9 9 9 8 7 7 6 5 5 4 3 2 2 1 1 1 2 2 3 3 4 4 4 4
3 5 1 4 5 4 5 5 7 4 2 4 4 7 6 9 9 9 9 8 8 9 8 8 8 6 5 5 5 5 4 3 3 2 1 1 1 2 3 4 4 4 4 4
5 5 3 5 6 2 2 4 6 6 5 4 4 6 3 4 5 7 8 8 8 8 8 7 6 6 6 6 5 5 4 4 3 2 1 0 2 2 3 4 4 4 4 4
5 4 6 7 7 5 4 5 6 6 4 4 6 6 3 5 7 7 8 9 8 8 8 8 7 7 6 6 6 5 5 4 4 3 2 1 2 2 2 3 4 4 3 4
5 4 5 6 6 5 6 8 8 7 9 8 7 8 9 9 10 9 8 8 7 7 8 8 8 7 6 6 5 5 5 4 4 3 2 2 2 2 2 3 3 3 3 4
4 3 0 3 4 3 5 8 9 9 7 7 6 7 8 6 6 6 8 9 9 8 9 8 8 7 7 7 6 5 5 5 4 4 3 2 1 1 2 2 3 3 4 4
3 4 2 4 5 3 5 9 10 8 7 9 9 10 6 5 8 10 10 9 9 8 8 8 8 8 8 7 7 6 6 4 4 4 3 3 2 1 2 2 2 3 3 3
6 5 4 1 2 5 9 7 8 9 8 8 8 8 9 10 8 7 8 10 9 8 7 7 7 7 7 6 6 6 5 5 4 3 3 3 3 2 2 2 2 3 2 2
6 7 4 3 3 7 9 6 6 7 6 7 9 8 7 6 5 1 4 8 9 8 7 7 7 6 6 6 6 6 5 4 4 4 4 4 4 3 3 3 3 3 2 3
5 6 6 4 3 6 9 7 3 5 3 5 8 9 9 9 4 5 5 6 7 6 6 5 5 5 6 5 6 6 5 4 5 5 6 5 4 4 4 4 4 3 2 3
2 3 4 5 5 8 9 4 4 4 8 5 7 9 10 9 8 6 7 7 7 7 6 6 7 6 5 5 6 6 5 5 6 5 5 4 4 4 5 4 3 3 3 3
8 6 6 6 4 8 6 5 7 9 4 4 6 8 9 7 6 7 9 8 8 6 6 6 6 5 3 5 6 5 4 5 4 4 4 4 5 4 3 4 4 3 2 3
7 9 7 9 9 8 6 8 6 6 6 6 7 7 10 9 8 8 7 8 7 7 6 5 6 5 2 3 5 4 3 3 3 2 3 4 4 4 4 4 4 3 2 2
5 2 3 4 8 6 5 3 4 6 7 7 7 9 10 9 9 9 8 7 6 5 5 5 6 5 3 2 2 2 2 2 2 2 3 3 3 4 4 3 4 3 3 3
6 1 1 4 6 3 5 5 6 5 5 6 6 7 10 11 9 9 8 7 6 5 5 6 6 5 4 2 1 0 1 2 2 2 2 3 3 4 4 4 4 5 5 5
5 6 5 7 8 7 9 8 7 7 7 8 7 6 7 9 10 9 8 7 7 6 6 6 6 5 3 2 1 1 0 2 2 1 2 2 3 3 3 4 5 6 7 9
Wind_Direction
165 124 175 191 180 169 180 190 237 242 207 183 221 237 212 199 193 187 188 180 167 170 173 155 148 135 117 100 90 79 52 8 12 358 346 333 321 318 325 319 314 315 314 313
73 206 200 162 162 148 167 202 254 265 223 192 231 250 224 197 197 186 178 173 163 155 153 159 150 132 123 119 102 83 53 14 353 313 285 270 283 294 299 313 325 326 321 316
166 208 166 156 172 178 197 184 208 227 283 268 142 338 279 204 180 175 173 168 160 160 164 166 154 145 132 127 119 103 81 28 341 329 331 343 349 337 338 335 331 323 325 322
190 223 168 163 189 165 225 215 203 199 135 272 152 233 277 202 171 179 178 164 160 160 159 161 158 152 149 154 139 127 118 358 334 349 6 358 350 326 300 303 310 320 328 327
215 195 178 195 209 174 210 225 212 197 156 326 37 141 276 165 188 202 189 173 166 164 160 163 162 158 156 155 147 143 118 344 337 356 13 16 354 304 306 322 333 335 335 338
216 222 193 194 198 188 171 52 32 48 74 320 237 151 231 214 201 189 186 179 171 165 162 161 159 151 150 154 147 141 122 318 327 348 5 21 352 337 344 342 340 335 330 330
339 298 225 162 134 68 85 79 27 10 14 262 244 138 229 236 192 175 177 182 180 172 162 161 162 163 165 168 169 162 158 288 312 332 339 336 331 330 330 321 323 326 327 319
142 247 230 179 165 168 162 136 152 185 221 279 4 164 257 269 179 164 169 176 178 178 175 175 178 178 180 183 182 181 190 250 293 311 316 320 323 323 315 316 313 315 303 297
161 232 274 196 157 137 131 149 167 141 178 303 335 349 325 328 165 167 175 177 187 189 186 183 183 183 186 190 196 196 197 232 277 291 310 329 331 333 325 324 329 321 309 315
151 164 288 285 65 51 142 144 96 108 135 316 314 226 222 219 218 210 197 196 199 191 187 186 186 189 193 195 198 198 196 211 237 263 306 338 330 329 329 337 335 327 324 333
124 130 339 34 175 201 137 108 106 115 148 151 222 261 225 201 202 201 205 201 194 188 187 187 191 193 191 186 188 199 204 201 214 241 295 348 331 333 344 342 328 324 330 336
139 115 144 278 287 198 166 169 142 144 200 159 173 261 267 197 197 192 199 200 192 185 184 185 186 186 185 184 189 196 197 196 214 217 206 303 320 340 347 340 333 332 334 338
130 110 79 352 340 346 178 174 148 132 122 150 169 260 298 193 197 199 192 193 189 182 179 180 182 188 193 192 193 198 198 201 209 195 171 313 329 331 331 330 337 345 346 346
123 121 157 188 220 213 220 214 163 130 151 199 213 232 242 208 205 208 197 190 187 184 181 182 192 202 203 198 197 196 201 199 192 176 168 237 286 292 305 323 343 350 351 354
118 154 203 225 233 204 212 215 196 182 185 187 220 215 227 214 206 203 195 188 184 187 188 190 195 202 203 201 206 201 201 201 186 171 187 239 267 290 318 335 343 348 349 352
124 158 192 304 282 251 243 227 208 209 201 203 208 234 231 211 181 180 184 180 187 194 195 195 194 193 194 194 199 197 199 201 178 173 201 226 260 308 319 320 333 345 342 343
144 148 140 273 305 10 275 230 205 207 205 185 206 223 202 179 188 190 189 185 190 194 193 191 191 193 194 194 189 190 196 189 173 183 206 217 225 258 290 314 337 330 326 334
148 137 143 208 19 250 249 251 202 203 220 197 190 195 189 191 193 191 183 180 189 191 189 189 189 188 190 187 183 179 168 167 172 186 210 221 223 248 277 308 308 302 305 313
149 140 131 137 217 274 289 271 177 172 240 210 188 189 184 154 98 346 208 178 182 185 183 185 184 178 175 176 175 158 160 171 179 201 219 224 219 231 256 273 278 274 287 297
81 100 122 131 181 246 256 271 185 112 265 251 182 177 165 134 143 233 212 170 164 163 163 163 157 147 157 176 159 150 166 178 203 219 224 224 218 222 238 252 260 263 259 272
96 87 137 165 213 261 255 261 95 142 234 242 176 168 163 175 193 193 169 161 157 156 158 149 142 148 169 164 147 152 171 205 223 224 223 225 227 230 236 249 257 264 274 293
183 174 185 157 193 254 245 155 179 212 210 168 160 165 165 172 161 154 159 159 154 150 149 145 142 153 164 154 146 155 197 226 220 213 219 234 240 244 240 237 259 267 268 286
199 193 187 187 212 237 222 203 208 173 173 177 162 164 153 149 156 158 158 156 155 153 151 145 144 141 135 146 145 162 226 220 193 197 233 254 263 259 251 237 250 265 263 264
272 178 160 237 260 253 233 207 183 179 178 177 166 160 154 155 158 156 155 156 155 153 150 140 133 134 137 139 137 172 217 194 175 206 251 268 275 282 277 259 246 245 253 257
250 233 193 258 275 297 275 236 206 192 165 151 149 158 161 155 158 158 157 157 156 151 145 137 139 144 155 149 138 167 164 142 167 229 269 282 277 276 280 276 256 246 243 234
221 200 201 235 230 210 234 229 202 180 183 173 158 155 161 161 160 155 155 158 152 147 140 136 139 141 139 117 80 3 3 144 151 245 292 292 291 288 286 289 298 278 264 272
Height
1501 1509 1516 1516 1515 1517 1521 1526 1528 1522 1514 1518 1521 1519 1517 1518 1519 1521 1522 1522 1523 1525 1526 1527 1527 1526 1525 1524 1522 1521 1519 1517 1515 1513 1510 1508 1506 1503 1501 1499 1497 1496 1494 1493
1507 1512 1508 1509 1511 1515 1520 1525 1525 1519 1513 1516 1519 1518 1515 1515 1517 1518 1519 1520 1521 1523 1525 1526 1526 1525 1524 1523 1521 1520 1518 1516 1514 1512 1509 1507 1505 1503 1500 1498 1496 1494 1493 1491
1510 1509 1505 1509 1513 1517 1519 1523 1521 1520 1514 1514 1519 1524 1519 1515 1516 1518 1519 1520 1520 1521 1523 1524 1524 1523 1523 1522 1520 1519 1517 1515 1513 1511 1509 1507 1504 1502 1500 1497 1495 1493 1491 1490
1508 1505 1505 1509 1512 1515 1521 1512 1512 1514 1523 1528 1522 1539 1525 1519 1518 1518 1519 1519 1520 1521 1522 1522 1522 1522 1522 1521 1519 1518 1516 1515 1513 1510 1508 1506 1503 1501 1499 1496 1494 1492 1491 1489
1508 1504 1505 1509 1508 1508 1511 1506 1509 1512 1519 1527 1526 1536 1532 1521 1522 1519 1518 1518 1519 1520 1520 1521 1521 1521 1520 1520 1519 1517 1516 1514 1512 1510 1508 1505 1503 1501 1498 1496 1494 1492 1490 1488
1504 1501 1501 1502 1501 1502 1503 1509 1514 1521 1528 1538 1526 1534 1533 1524 1518 1516 1516 1517 1518 1519 1519 1520 1520 1520 1520 1519 1518 1516 1515 1513 1511 1509 1507 1505 1503 1500 1498 1496 1493 1491 1489 1487
1508 1503 1499 1498 1503 1503 1508 1523 1540 1540 1548 1542 1524 1529 1528 1513 1510 1510 1513 1515 1516 1517 1518 1518 1519 1519 1518 1518 1517 1516 1514 1513 1511 1509 1507 1505 1502 1500 1498 1495 1493 1490 1488 1486
1516 1516 1500 1497 1500 1505 1508 1520 1540 1548 1548 1541 1526 1529 1522 1510 1508 1509 1511 1513 1514 1515 1516 1517 1517 1517 1517 1517 1516 1515 1514 1512 1511 1509 1507 1505 1502 1500 1498 1495 1493 1490 1488 1486
1515 1513 1497 1495 1494 1498 1508 1517 1519 1534 1535 1541 1536 1527 1518 1512 1511 1511 1512 1512 1513 1514 1514 1515 1516 1516 1516 1516 1515 1514 1513 1512 1510 1508 1506 1504 1502 1500 1497 1495 1493 1490 1488 1485
1503 1510 1500 1495 1495 1497 1501 1509 1523 1532 1543 1548 1538 1532 1530 1517 1513 1511 1511 1511 1511 1512 1513 1514 1514 1515 1515 1515 1514 1513 1512 1511 1510 1508 1506 1504 1502 1500 1497 1495 1493 1490 1488 1485
1498 1509 1507 1502 1503 1505 1504 1508 1520 1533 1537 1547 1546 1537 1509 1508 1506 1507 1507 1507 1508 1509 1511 1512 1513 1513 1513 1513 1513 1513 1512 1510 1509 1508 1506 1504 1502 1500 1498 1495 1493 1490 1488 1485
1498 1509 1515 1508 1499 1496 1500 1505 1516 1530 1533 1538 1544 1533 1500 1501 1501 1502 1504 1505 1506 1508 1509 1510 1511 1512 1512 1512 1512 1512 1511 1510 1508 1507 1506 1504 1502 1500 1498 1495 1493 1490 1488 1485
1497 1510 1523 1521 1514 1502 1500 1501 1508 1518 1529 1537 1540 1526 1500 1500 1501 1501 1502 1503 1504 1506 1507 1508 1509 1510 1510 1511 1511 1510 1510 1509 1508 1507 1505 1503 1502 1500 1498 1495 1493 1490 1488 1485
1494 1507 1517 1522 1516 1506 1503 1501 1503 1514 1528 1528 1524 1515 1503 1501 1500 1500 1500 1501 1502 1504 1505 1506 1507 1508 1509 1509 1509 1509 1509 1508 1507 1506 1505 1503 1501 1499 1497 1495 1493 1491 1488 1485
1493 1504 1503 1502 1498 1498 1499 1498 1500 1506 1511 1518 1511 1507 1500 1497 1496 1496 1497 1499 1501 1502 1503 1504 1505 1506 1507 1507 1508 1508 1507 1507 1506 1505 1504 1503 1501 1499 1497 1495 1493 1491 1488 1486
1493 1499 1499 1500 1495 1495 1497 1495 1496 1498 1499 1502 1501 1500 1491 1491 1492 1494 1495 1497 1498 1499 1500 1502 1503 1504 1505 1505 1506 1506 1506 1506 1505 1504 1503 1502 1501 1499 1497 1495 1493 1491 1489 1487
1495 1499 1506 1510 1500 1498 1504 1492 1492 1492 1489 1493 1498 1494 1488 1490 1491 1491 1492 1494 1495 1496 1498 1499 1500 1501 1502 1504 1504 1505 1505 1505 1504 1503 1502 1501 1500 1498 1497 1495 1493 1491 1489 1487
1494 1500 1509 1512 1506 1513 1498 1479 1480 1483 1482 1481 1482 1483 1484 1485 1487 1488 1490 1491 1493 1494 1496 1497 1498 1499 1501 1502 1503 1503 1503 1503 1503 1502 1501 1500 1499 1498 1496 1495 1493 1491 1489 1487
1486 1496 1508 1515 1515 1508 1490 1477 1476 1482 1482 1476 1478 1479 1481 1483 1486 1488 1488 1489 1490 1492 1494 1495 1496 1498 1499 1500 1501 1502 1502 1502 1502 1501 1500 1499 1498 1497 1496 1494 1493 1491 1489 1488
1488 1492 1505 1514 1512 1513 1491 1473 1471 1476 1484 1473 1474 1476 1479 1482 1490 1488 1486 1488 1489 1491 1492 1494 1495 1496 1497 1498 1499 1500 1500 1500 1500 1499 1499 1498 1497 1496 1495 1493 1492 1491 1489 1487
1495 1499 1506 1510 1511 1501 1479 1472 1473 1491 1486 1471 1471 1472 1475 1478 1480 1481 1484 1486 1488 1489 1491 1492 1493 1494 1496 1497 1498 1498 1498 1498 1498 1498 1497 1496 1496 1495 1494 1492 1491 1490 1488 1487
1495 1501 1504 1509 1510 1501 1470 1471 1476 1475 1468 1469 1470 1471 1473 1475 1477 1479 1482 1484 1486 1488 1489 1491 1492 1493 1494 1495 1496 1496 1496 1496 1496 1496 1495 1495 1494 1493 1492 1491 1490 1488 1487 1485
1487 1485 1487 1489 1486 1470 1466 1466 1466 1466 1467 1468 1469 1470 1472 1474 1476 1478 1480 1482 1484 1486 1488 1489 1490 1491 1492 1493 1494 1494 1494 1494 1494 1494 1493 1493 1492 1491 1490 1489 1488 1487 1485 1484
1478 1475 1478 1479 1472 1466 1464 1464 1464 1465 1466 1467 1468 1469 1470 1472 1474 1476 1479 1481 1482 1484 1486 1487 1488 1489 1490 1491 1491 1492 1492 1492 1492 1492 1491 1490 1489 1489 1488 1487 1485 1484 1483 1482
1475 1473 1476 1475 1468 1465 1464 1463 1463 1464 1464 1465 1466 1467 1469 1470 1472 1474 1476 1478 1480 1482 1483 1485 1486 1487 1488 1489 1489 1489 1489 1489 1489 1489 1488 1488 1487 1486 1485 1484 1483 1482 1481 1480
1469 1470 1473 1472 1464 1464 1461 1460 1461 1461 1462 1463 1464 1465 1467 1468 1470 1472 1474 1476 1478 1479 1481 1482 1484 1485 1485 1486 1487 1487 1487 1487 1486 1486 1485 1485 1484 1482 1481 1480 1479 1479 1478 1476